Retour au catalogue

LEMUR 2 SEJONG-2

ActifScienceSSO
NORAD 64586·PAYLOAD·🇺🇸 United States

Lancé Jun 23, 2025 depuis Vandenberg Space Force Base

Loading…

Prochains Passages (prochaines 24 heures)

TLE

FraisSource: Space-Track

Époque: Sep 14, 2026, 14:29 UTC

1 64586U 25135BL  26257.60362515  .00004150  00000-0  36249-3 0  9992
2 64586  97.7767  12.0872 0005285  46.9581 313.2083 14.97336732 67320

Suivez LEMUR 2 SEJONG-2 en temps réel avec AllMySat

Download on the App Store